This demonstration page uses our WeatherBlox Daily Observations layout. Learn more.

Left ArrowRight Arrow

Hourly Observations for May 14, 2015

Temp ( °F °C ) Dew Point ( °F °C ) Humidity (%) Winds ( mph kmh ) Pressure ( in mb ) Visibility ( mi km ) Precip ( " mm )
12:52 am 00:52 Cloudy with Light Rain 56 13.3 52 11.1 87 87 SE 10 17 30.08 1019 7 11 0.06 1.52
1:52 am 01:52 Cloudy with Light Rain 56 13.3 52 11.1 87 87 ESE 14 22 30.05 1018 7 11 0.08 2.03
2:43 am 02:43 Cloudy with Rain 55 12.8 52 11.1 90 90 ESE 17 28 30.03 1017 4 6 0.04 1.02
2:52 am 02:52 Cloudy with Light Rain 55 12.8 52 11.1 90 90 ESE 17 28 30.02 1017 6 10 0.05 1.27
3:32 am 03:32 Cloudy with Rain 55 13 54 12 94 94 SE 15 24 30.00 1016 6 10 0.00 0.00
3:41 am 03:41 Cloudy with Rain 55 12.8 53 11.7 93 93 SE 16 26 30.00 1016 4 6 0.07 1.78
3:52 am 03:52 Cloudy with Rain 55 12.8 53 11.7 93 93 SE 16 26 30.00 1016 4 6 0.09 2.29
4:52 am 04:52 Cloudy with Light Rain 55 12.8 53 11.7 93 93 SE 15 24 29.97 1015 5 8 0.05 1.27
5:52 am 05:52 Cloudy with Light Rain 55 12.8 53 11.7 93 93 SE 18 30 29.95 1014 6 10 0.08 2.03
6:52 am 06:52 Cloudy with Light Rain 55 12.8 53 11.7 93 93 SE 16 26 29.95 1014 5 8 0.04 1.02
7:52 am 07:52 Cloudy with Light Rain 56 13.3 54 12.2 93 93 SSE 15 24 29.95 1014 6 10 0.01 0.25
8:52 am 08:52 Cloudy with Light Rain 57 13.9 55 12.8 93 93 SSE 15 24 29.94 1014 3 5 0.02 0.51
8:56 am 08:56 Cloudy with Light Rain 57 13.9 55 12.8 93 93 SSE 16 26 29.94 1014 2 3 0.01 0.25
9:18 am 09:18 Cloudy with Light Rain 57 14 55 13 94 94 SSE 14 22 29.94 1014 3 4 0.00 0.00
9:34 am 09:34 Cloudy with Light Rain 57 14 55 13 94 94 SSE 15 24 29.94 1014 3 5 0.00 0.00
9:52 am 09:52 Cloudy with Rain 58 14.4 56 13.3 93 93 SSE 14 22 29.93 1014 3 5 0.03 0.76
10:52 am 10:52 Cloudy with Light Rain 59 15 57 13.9 93 93 S 14 22 29.92 1013 4 6 0.04 1.02
11:52 am 11:52 Cloudy with Light Rain 60 15.6 58 14.4 93 93 S 12 19 29.92 1013 7 11 0.03 0.76
12:52 pm 12:52 Cloudy with Light Rain 61 16.1 59 15 93 93 S 13 20 29.90 1013 10 16 0.00 0.03
1:52 pm 13:52 Cloudy with Mist and Fog 62 16.7 60 15.6 93 93 S 12 19 29.89 1012 5 8 0.00 0.03
2:23 pm 14:23 Cloudy with Drizzle 63 17.2 61 16.1 93 93 S 9 15 29.85 1011 3 5 0.00 0.03
2:52 pm 14:52 Cloudy with Drizzle 63 17.2 61 16.1 93 93 S 7 11 29.88 1012 4 6 0.00 0.03
3:32 pm 15:32 Cloudy with Light Rain 63 17 63 17 100 100 SSW 5 7 29.85 1011 3 5 0.00 0.00
3:34 pm 15:34 Cloudy with Light Rain 63 17.2 62 16.7 97 97 SSW 5 7 29.85 1011 3 4 0.01 0.25
3:47 pm 15:47 Cloudy with Light Rain 63 17 61 16 94 94 SW 7 11 29.85 1011 3 5 0.02 0.51
3:52 pm 15:52 Cloudy with Mist and Fog 64 17.8 62 16.7 93 93 SW 6 9 29.87 1012 4 6 0.02 0.51
4:52 pm 16:52 Cloudy 66 18.9 60 15.6 81 81 WSW 6 9 29.86 1011 8 13 0.00 0.00
5:42 pm 17:42 Cloudy 68 20 61 16 78 78 SW 8 13 29.85 1011 10 16 0.00 0.00
5:52 pm 17:52 Cloudy 69 20.6 60 15.6 73 73 SW 8 13 29.86 1011 10 16 0.00 0.00
6:52 pm 18:52 Mostly Cloudy 69 20.6 58 14.4 68 68 WSW 6 9 29.86 1011 10 16 0.00 0.00
7:52 pm 19:52 Cloudy 68 20 59 15 73 73 SW 3 6 29.87 1011 10 16 0.00 0.00
8:52 pm 20:52 Mostly Cloudy 67 19.4 58 14.4 73 73 SSW 3 6 29.87 1011 10 16 0.00 0.00
9:52 pm 21:52 Mostly Cloudy 60 15.6 58 14.4 93 93 SE 7 11 29.90 1012 10 16 0.00 0.00
10:52 pm 22:52 Partly Cloudy 59 15 57 13.9 93 93 SSE 6 9 29.91 1013 10 16 0.00 0.00
11:52 pm 23:52 Partly Cloudy 58 14.4 57 13.9 97 97 SE 7 11 29.91 1013 10 16 0.00 0.00

Powered by AerisWeather